[[[{"header":{"parameterUnit":"kt","parameterCategory":2,"dx":1,"dy":1,"la1":30.253999710083008,"la2":30.299108505249023,"lo1":-89.0895004272461,"lo2":-89.04439544677734,"nx":28,"ny":28,"refTime":"2022-09-22T21:00:00:Z","depth":0,"parameterNumber":1,"parameterNumberName":"U-component_of_WINDS"},"data":[1.7772,1.7784,1.7804,1.7828,1.785,1.7869,1.7882,1.7901,1.7921,1.7946,1.7964,1.7985,1.8012,1.8038,1.8057,1.8066,1.8072,1.8063,1.8074,1.8099,1.8103,1.8107,1.8106,1.8065,1.8065,1.8046,1.8046,1.8046,1.7792,1.7814,1.7832,1.7863,1.7878,1.79,1.7926,1.7937,1.7953,1.7978,1.7996,1.8019,1.8039,1.807,1.8092,1.8098,1.8108,1.8103,1.8102,1.8105,1.8133,1.8131,1.8094,1.8094,1.8094,1.8094,1.8094,1.8094,1.7833,1.7839,1.7869,1.7889,1.791,1.793,1.7939,1.7965,1.7982,1.8007,1.8027,1.8045,1.8072,1.8108,1.8124,1.8139,1.8148,1.8147,1.8147,1.8145,1.8142,1.8166,1.8143,1.8143,1.8144,1.8144,1.8144,0,1.7869,1.7886,1.7903,1.7927,1.7942,1.7962,1.7984,1.799,1.8029,1.8041,1.8061,1.8075,1.8102,1.8122,1.8146,1.8163,1.8184,1.8188,1.8188,1.8178,1.8167,1.8172,1.8215,1.8188,1.8188,1.8189,1.8189,1.8189,1.7911,1.7916,1.7956,1.7966,1.7982,1.7997,1.801,1.8044,1.8056,1.8087,1.809,1.811,1.8128,1.8154,1.8181,1.8201,1.8211,1.8199,1.8214,1.8205,1.821,1.8209,1.821,1.8194,1.8193,1.8193,1.8192,0,1.7934,1.7965,1.7978,1.8016,1.8026,1.8029,1.8061,1.8068,1.8091,1.8104,1.8108,1.8143,1.816,1.819,1.8215,1.8229,1.8234,1.8244,1.8226,1.8229,1.822,1.822,1.8189,1.8186,1.823,1.823,1.8229,0,1.7981,1.7985,1.8031,1.8037,1.8043,1.8076,1.8081,1.8101,1.8124,1.8134,1.8164,1.8172,1.8208,1.8221,1.8242,1.8252,1.8256,1.8268,1.8273,1.8264,1.8263,1.8269,1.827,1.8285,1.8285,1.8285,1.8286,0,1.8011,1.804,1.8049,1.806,1.81,1.8104,1.8121,1.8146,1.8158,1.8177,1.8185,1.8205,1.8215,1.8231,1.8257,1.8267,1.827,1.8287,1.8281,1.828,1.8278,1.8277,1.8244,1.8286,1.8286,1.8286,1.8286,0,1.8053,1.8072,1.8081,1.8115,1.8121,1.8127,1.8149,1.8161,1.8186,1.82,1.8215,1.8236,1.8247,1.8263,1.8278,1.8282,1.8291,1.8303,1.8303,1.8304,1.832,1.8296,1.8263,1.826,1.8308,1.8308,1.8308,0,1.8078,1.8095,1.8123,1.813,1.8142,1.8174,1.8181,1.8202,1.8221,1.8233,1.8254,1.8267,1.8285,1.8292,1.8296,1.8318,1.8312,1.8319,1.8335,1.8335,1.8327,1.8297,1.8284,1.8267,1.8311,1.8311,1.831,0,1.8101,1.8149,1.8148,1.8162,1.8194,1.8203,1.8211,1.8232,1.8238,1.8258,1.8265,1.8284,1.8298,1.831,1.8329,1.8331,1.8317,1.8345,1.8346,1.8339,1.8314,1.8302,1.8299,1.8329,1.8329,1.8329,1.8312,0,1.8157,1.8168,1.8168,1.8196,1.8207,1.8213,1.8243,1.8251,1.8269,1.8288,1.8299,1.8321,1.834,1.8344,1.836,1.8356,1.8361,1.8375,1.8391,1.8371,1.8366,1.8365,1.8396,1.8396,1.8397,1.8397,0,0,1.8173,1.819,1.8219,1.8227,1.8238,1.827,1.8273,1.8288,1.8315,1.8322,1.8332,1.8361,1.8377,1.8387,1.8383,1.839,1.8392,1.8397,1.838,1.8378,1.8377,1.8371,1.8369,1.8398,1.8399,1.8399,1.8399,0,1.8199,1.8217,1.822,1.8237,1.8262,1.8282,1.8283,1.8313,1.8325,1.8335,1.8359,1.8369,1.8389,1.8405,1.8415,1.8398,1.8414,1.8401,1.8382,1.8385,1.8382,1.838,1.8374,1.8371,1.84,1.84,1.84,0,1.8226,1.8249,1.8253,1.828,1.8296,1.8306,1.8331,1.834,1.8348,1.8379,1.8388,1.8404,1.8426,1.843,1.8433,1.8442,1.8433,1.844,1.8437,1.8438,1.8441,1.8438,1.8435,1.8474,1.8474,1.8474,0,0,1.8244,1.8254,1.8288,1.8288,1.8296,1.8325,1.8333,1.8351,1.837,1.8378,1.8398,1.8416,1.8428,1.8436,1.8449,1.845,1.8456,1.8448,1.8444,1.8441,1.844,1.8443,1.844,1.8474,1.8474,1.8474,0,0,1.8252,1.8291,1.8305,1.8309,1.8327,1.8359,1.8357,1.8375,1.8389,1.8392,1.8421,1.8426,1.8431,1.8445,1.8449,1.8454,1.847,1.8469,1.8445,1.8441,1.8438,1.8433,1.8476,0,0,0,0,0,1.8293,1.8287,1.8299,1.8304,1.8336,1.8352,1.8356,1.8381,1.8392,1.839,1.841,1.8427,1.8454,1.8458,1.8462,1.8456,1.8481,1.848,1.8479,1.8448,1.8443,1.844,0,0,0,0,0,0,1.8295,1.8301,1.8299,1.833,1.8338,1.8353,1.8376,1.8383,1.8392,1.8396,1.8423,1.8428,1.8448,1.8458,1.8461,1.8455,1.8475,1.8481,1.848,1.8479,1.8446,1.8443,1.844,0,0,0,0,0,1.8297,1.8302,1.8347,1.833,1.8337,1.8368,1.8377,1.8382,1.839,1.842,1.8425,1.8408,1.8447,1.8452,1.846,1.8453,1.8473,1.8474,1.848,1.8479,1.8479,1.8445,0,0,0,0,0,0,1.8298,1.8307,1.8349,1.8352,1.8334,1.8368,1.8374,1.8382,1.8414,1.8419,1.8406,1.8408,1.8447,1.845,1.8453,1.8451,1.8471,1.8472,1.8473,1.848,1.8479,1.8478,0,0,0,0,0,0,1.8304,1.8309,1.8351,1.8354,1.8358,1.8367,1.8372,1.8382,1.8414,1.8398,1.8401,1.8406,1.8442,1.8449,1.8452,1.8466,1.847,1.8471,1.8471,1.8472,1.8479,1.8479,0,0,0,0,0,0,1.8307,1.8311,1.8354,1.8356,1.8359,1.8394,1.8376,1.8407,1.8418,1.8396,1.842,1.842,1.844,1.8443,1.845,1.8463,1.8465,1.847,1.847,1.8471,1.8471,0,0,0,0,0,0,0,1.8309,1.8276,1.8332,1.8358,1.8361,1.8379,1.838,1.838,1.8418,1.8419,1.8419,1.842,1.8463,1.8465,1.8466,1.8461,0,0,1.8469,1.847,0,0,0,0,0,0,0,0,1.8275,1.8276,1.8332,1.8333,1.8333,1.8379,1.838,1.838,1.8418,1.8419,1.8419,1.842,1.8464,1.8465,1.8466,0,0,0,0,0,0,0,0,0,0,0,0,0,0,0,1.8332,1.8333,0,1.8379,1.838,1.838,1.8418,1.8419,1.8419,1.8419,1.8464,1.8465,1.8466,0,0,0,0,0,0,0,0,0,0,0,0,0,0,0,0,0,0,0,0,0,0,0,0,0,0,0,0,0,0,0,0,0,0,0,0,0,0,0,0,0,0,0,0,0,0,0,0,0,0,0,0,0,0,0,0,0,0,0,0,0,0,0,0,0,0,0,0,0]}],[{"header":{"parameterUnit":"kt","parameterCategory":2,"dx":1,"dy":1,"la1":30.253999710083008,"la2":30.299108505249023,"lo1":-89.0895004272461,"lo2":-89.04439544677734,"nx":28,"ny":28,"refTime":"2022-09-22T21:00:00:Z","depth":0,"parameterNumber":2,"parameterNumberName":"V-component_of_WINDS"},"data":[-2.6009,-2.61,-2.6155,-2.6285,-2.6355,-2.6453,-2.6506,-2.6579,-2.6651,-2.6774,-2.6854,-2.6917,-2.701,-2.7119,-2.7209,-2.7235,-2.727,-2.7264,-2.7296,-2.7272,-2.7272,-2.7273,-2.7256,-2.727,-2.727,-2.7313,-2.7314,-2.7314,-2.5993,-2.6064,-2.6148,-2.6265,-2.6338,-2.6377,-2.6474,-2.6532,-2.6618,-2.6706,-2.6787,-2.69,-2.6994,-2.709,-2.7191,-2.7235,-2.7259,-2.7259,-2.7257,-2.7272,-2.7248,-2.7229,-2.7238,-2.7238,-2.7238,-2.7238,-2.7238,-2.7238,-2.5979,-2.6031,-2.6134,-2.6225,-2.6298,-2.6377,-2.6435,-2.6512,-2.6594,-2.6705,-2.6752,-2.6849,-2.6948,-2.7093,-2.7155,-2.7233,-2.7243,-2.7259,-2.7263,-2.7267,-2.7264,-2.72,-2.7252,-2.7252,-2.7252,-2.7252,-2.7252,0,-2.5986,-2.6028,-2.611,-2.621,-2.6279,-2.6361,-2.6444,-2.6482,-2.6587,-2.6649,-2.6745,-2.6809,-2.6935,-2.7031,-2.7135,-2.7196,-2.7242,-2.7251,-2.7263,-2.7243,-2.7214,-2.7233,-2.7195,-2.7249,-2.7249,-2.7249,-2.725,-2.725,-2.5978,-2.603,-2.6162,-2.6213,-2.6272,-2.6352,-2.6411,-2.6499,-2.6557,-2.6673,-2.6713,-2.681,-2.6892,-2.7034,-2.7121,-2.7214,-2.7238,-2.7253,-2.7252,-2.7231,-2.7241,-2.7238,-2.7246,-2.7252,-2.7251,-2.7251,-2.7251,0,-2.5968,-2.6055,-2.6153,-2.6278,-2.6311,-2.6361,-2.6469,-2.6523,-2.659,-2.6674,-2.6699,-2.6803,-2.6894,-2.6979,-2.7099,-2.714,-2.7228,-2.7246,-2.7196,-2.7205,-2.723,-2.7227,-2.7289,-2.7303,-2.7286,-2.7286,-2.7286,0,-2.5996,-2.606,-2.6187,-2.6238,-2.6314,-2.6401,-2.6473,-2.6538,-2.6622,-2.6689,-2.6755,-2.6816,-2.6914,-2.6988,-2.7049,-2.7134,-2.7156,-2.7194,-2.7209,-2.7189,-2.7184,-2.7221,-2.7221,-2.7239,-2.7238,-2.7238,-2.7238,0,-2.5973,-2.6115,-2.62,-2.6246,-2.6384,-2.6422,-2.6481,-2.6575,-2.6631,-2.6717,-2.6754,-2.6847,-2.6898,-2.6969,-2.7046,-2.7043,-2.7152,-2.7163,-2.7191,-2.7189,-2.7211,-2.7208,-2.7242,-2.7237,-2.7237,-2.7237,-2.7237,0,-2.6009,-2.6094,-2.6203,-2.632,-2.6354,-2.6408,-2.6507,-2.6573,-2.6668,-2.671,-2.6778,-2.6831,-2.691,-2.6916,-2.7028,-2.7001,-2.7048,-2.7091,-2.7094,-2.7108,-2.7111,-2.7122,-2.7143,-2.715,-2.7119,-2.7118,-2.7118,0,-2.5961,-2.6093,-2.6168,-2.6269,-2.6342,-2.6412,-2.6474,-2.6555,-2.6617,-2.6688,-2.6756,-2.6835,-2.6856,-2.6892,-2.6936,-2.7009,-2.7043,-2.7007,-2.711,-2.7112,-2.7085,-2.7106,-2.7089,-2.7129,-2.7106,-2.7107,-2.7108,0,-2.5935,-2.6101,-2.6113,-2.617,-2.6291,-2.6351,-2.6421,-2.6519,-2.6563,-2.6644,-2.6708,-2.6818,-2.6841,-2.6899,-2.695,-2.6992,-2.7023,-2.7009,-2.7013,-2.7011,-2.7106,-2.709,-2.7097,-2.7049,-2.705,-2.7052,-2.7099,0,-2.5974,-2.6049,-2.6086,-2.6205,-2.6264,-2.633,-2.642,-2.6471,-2.6516,-2.6579,-2.6671,-2.6756,-2.6854,-2.6881,-2.6924,-2.6991,-2.6993,-2.7014,-2.7026,-2.7037,-2.7055,-2.7062,-2.6992,-2.6993,-2.6994,-2.6994,0,0,-2.5908,-2.6018,-2.6096,-2.6168,-2.6223,-2.6293,-2.6356,-2.6417,-2.6538,-2.6575,-2.6583,-2.6751,-2.6819,-2.6921,-2.6931,-2.6969,-2.699,-2.6981,-2.7031,-2.7034,-2.7038,-2.7055,-2.7061,-2.6996,-2.6996,-2.6996,-2.6996,0,-2.5941,-2.601,-2.6071,-2.6139,-2.6241,-2.6304,-2.6319,-2.6432,-2.6475,-2.6564,-2.662,-2.6684,-2.6813,-2.6881,-2.6932,-2.6971,-2.7009,-2.6993,-2.6987,-2.7034,-2.7037,-2.704,-2.7057,-2.7062,-2.6998,-2.6998,-2.6998,0,-2.5933,-2.6017,-2.6055,-2.6181,-2.6248,-2.6319,-2.6355,-2.6427,-2.6481,-2.6551,-2.6638,-2.6697,-2.6792,-2.6875,-2.6915,-2.6923,-2.7023,-2.7005,-2.7002,-2.7009,-2.7059,-2.7062,-2.7065,-2.7029,-2.7029,-2.7029,0,0,-2.5949,-2.6018,-2.6134,-2.6195,-2.6233,-2.6328,-2.6373,-2.6423,-2.6507,-2.6541,-2.6617,-2.6697,-2.6774,-2.6822,-2.6898,-2.6976,-2.7004,-2.7005,-2.7004,-2.7002,-2.7007,-2.7057,-2.706,-2.7028,-2.7028,-2.7028,0,0,-2.5956,-2.6094,-2.6124,-2.6205,-2.6285,-2.6402,-2.6436,-2.6476,-2.6553,-2.6555,-2.664,-2.6665,-2.6744,-2.6798,-2.6776,-2.6904,-2.6914,-2.6921,-2.6866,-2.6865,-2.6864,-2.685,-2.6823,0,0,0,0,0,-2.6036,-2.6077,-2.6104,-2.613,-2.6289,-2.6387,-2.6408,-2.648,-2.6487,-2.6513,-2.6583,-2.662,-2.6805,-2.6788,-2.6812,-2.6836,-2.7016,-2.7019,-2.702,-2.6968,-2.6966,-2.6965,0,0,0,0,0,0,-2.6047,-2.6079,-2.6103,-2.622,-2.6257,-2.6387,-2.6414,-2.6435,-2.6487,-2.6493,-2.6605,-2.6624,-2.6686,-2.678,-2.6801,-2.6822,-2.6816,-2.7017,-2.7019,-2.7021,-2.6968,-2.6966,-2.6965,0,0,0,0,0,-2.6056,-2.6082,-2.6317,-2.622,-2.6252,-2.6358,-2.6413,-2.6431,-2.6472,-2.658,-2.6599,-2.6522,-2.6685,-2.6708,-2.6793,-2.6811,-2.6802,-2.681,-2.7018,-2.702,-2.7021,-2.6967,0,0,0,0,0,0,-2.6063,-2.6099,-2.6325,-2.6337,-2.621,-2.6352,-2.6377,-2.6427,-2.6558,-2.6577,-2.65,-2.6503,-2.6684,-2.6702,-2.6719,-2.6803,-2.679,-2.6798,-2.6803,-2.7019,-2.7021,-2.7021,0,0,0,0,0,0,-2.6086,-2.6109,-2.6331,-2.6314,-2.6325,-2.6347,-2.6369,-2.645,-2.6558,-2.647,-2.6477,-2.65,-2.6658,-2.6698,-2.6712,-2.6837,-2.6781,-2.6789,-2.6794,-2.6797,-2.702,-2.7021,0,0,0,0,0,0,-2.6097,-2.6117,-2.6311,-2.6319,-2.6329,-2.6473,-2.642,-2.6578,-2.6544,-2.6463,-2.6543,-2.6542,-2.6653,-2.6668,-2.6707,-2.6825,-2.6834,-2.6782,-2.6787,-2.679,-2.6793,0,0,0,0,0,0,0,-2.6106,-2.5953,-2.6252,-2.6324,-2.6333,-2.6451,-2.6455,-2.6458,-2.6544,-2.6543,-2.6543,-2.6543,-2.6739,-2.6747,-2.6755,-2.6816,0,0,-2.6781,-2.6785,0,0,0,0,0,0,0,0,-2.5947,-2.5952,-2.6252,-2.6255,-2.6257,-2.6452,-2.6454,-2.6457,-2.6544,-2.6543,-2.6543,-2.6543,-2.6741,-2.6748,-2.6754,0,0,0,0,0,0,0,0,0,0,0,0,0,0,0,-2.6253,-2.6255,0,-2.6452,-2.6454,-2.6457,-2.6544,-2.6543,-2.6543,-2.6543,-2.6743,-2.6748,-2.6754,0,0,0,0,0,0,0,0,0,0,0,0,0,0,0,0,0,0,0,0,0,0,0,0,0,0,0,0,0,0,0,0,0,0,0,0,0,0,0,0,0,0,0,0,0,0,0,0,0,0,0,0,0,0,0,0,0,0,0,0,0,0,0,0,0,0,0,0,0]}]]]